Franklin, PA

12:53 PM EST on December 12, 2019 (GMT -0500)
Venango Regional

Weather History for KFKL - November, 2019

Change the Weather History Date:

Saturday, November 16, 2019

  Actual Average Record
Temperature  
Mean Temperature 30 °F -  
Max Temperature 37 °F 47 °F 74 °F (1927)
Min Temperature 24 °F 30 °F 6 °F (1933)
Degree Days  
Heating Degree Days 34    
Moisture  
Dew Point 16 °F    
Average Humidity 59    
Maximum Humidity 86    
Minimum Humidity 29    
Precipitation  
Precipitation 0.00 in - - ()
Sea Level Pressure  
Sea Level Pressure 30.38 in    
Wind  
Wind Speed 7 mph (ENE)    
Max Wind Speed 13 mph    
Max Gust Speed 18 mph    
Visibility 10 miles    
Events      
Averages and records for this station are not official NWS values.
T = Trace of Precipitation, MM = Missing Value Source: NWS Daily Summary

Daily Weather History Graph

Daily Weather History Graph

Search for Another Location

Airport or City:

Astronomy

Nov. 16, 2019 Rise Set
Actual Time 7:08 AM EST 4:59 PM EST
Civil Twilight 6:38 AM EST 5:28 PM EST
Nautical Twilight 6:05 AM EST 6:02 PM EST
Astronomical Twilight 5:32 AM EST 6:35 PM EST
Moon 8:29 PM EST (11/16) 11:02 AM EST (11/16)
Length of Visible Light 10h 49m
Length of Day
9h 50m
Waning Gibbous, 82% of the Moon is Illuminated
Nov 16
Waning Gibbous
Nov 19
Last Quarter
Nov 26
New
Dec 4
First Quarter
Dec 12
Full

Hourly Weather History & Observations

Time (EST) Temp. Windchill Dew Point Humidity Pressure Visibility Wind Dir Wind Speed Gust Speed Precip Events Conditions
12:56 AM 30.9 °F 27.5 °F 27.0 °F 85% 30.39 in 10.0 mi North 3.5 mph - N/A   Overcast
1:47 AM 30.2 °F 25.4 °F 26.6 °F 86% 30.32 in 10.0 mi North 4.6 mph - N/A   Overcast
1:56 AM 30.0 °F - 26.1 °F 85% 30.38 in 10.0 mi Calm Calm - N/A   Mostly Cloudy
2:24 AM 30.2 °F 25.4 °F 26.6 °F 86% 30.32 in 10.0 mi NNE 4.6 mph - N/A   Mostly Cloudy
2:56 AM 30.0 °F 21.7 °F 25.0 °F 82% 30.38 in 10.0 mi NNE 9.2 mph - N/A   Overcast
3:56 AM 30.0 °F 21.1 °F 21.9 °F 72% 30.37 in 10.0 mi NE 10.4 mph - N/A   Overcast
4:56 AM 28.9 °F 18.6 °F 21.9 °F 75% 30.38 in 10.0 mi NE 12.7 mph 18.4 mph N/A   Overcast
5:25 AM 26.6 °F 15.7 °F 19.4 °F 74% 30.33 in 10.0 mi NE 12.7 mph - N/A   Scattered Clouds
5:56 AM 26.1 °F 16.2 °F 19.9 °F 78% 30.41 in 10.0 mi NNE 10.4 mph - N/A   Clear
6:56 AM 24.1 °F 14.4 °F 19.0 °F 81% 30.44 in 10.0 mi NE 9.2 mph - N/A   Clear
7:56 AM 25.0 °F 15.5 °F 19.0 °F 78% 30.46 in 10.0 mi NE 9.2 mph - N/A   Clear
8:56 AM 27.0 °F 20.5 °F 19.9 °F 75% 30.47 in 10.0 mi ENE 5.8 mph - N/A   Clear
9:56 AM 30.0 °F 21.1 °F 18.0 °F 61% 30.47 in 10.0 mi ENE 10.4 mph - N/A   Clear
10:56 AM 32.0 °F 23.0 °F 16.0 °F 52% 30.46 in 10.0 mi East 11.5 mph - N/A   Clear
11:56 AM 34.0 °F 26.6 °F 12.9 °F 42% 30.42 in 10.0 mi ESE 9.2 mph - N/A   Clear
12:56 PM 36.0 °F 28.5 °F 12.0 °F 37% 30.39 in 10.0 mi ESE 10.4 mph - N/A   Clear
1:56 PM 37.9 °F 30.9 °F 12.0 °F 35% 30.36 in 10.0 mi ESE 10.4 mph - N/A   Clear
2:56 PM 37.9 °F 32.1 °F 8.1 °F 29% 30.36 in 10.0 mi East 8.1 mph - N/A   Clear
3:56 PM 36.0 °F 29.0 °F 9.0 °F 33% 30.36 in 10.0 mi NE 9.2 mph - N/A   Clear
4:56 PM 34.0 °F 29.8 °F 7.0 °F 32% 30.37 in 10.0 mi ENE 4.6 mph - N/A   Clear
5:56 PM 32.0 °F 27.5 °F 10.0 °F 40% 30.38 in 10.0 mi ENE 4.6 mph - N/A   Clear
6:56 PM 30.9 °F 26.2 °F 9.0 °F 40% 30.39 in 10.0 mi East 4.6 mph - N/A   Clear
7:56 PM 28.9 °F 21.9 °F 9.0 °F 43% 30.38 in 10.0 mi East 6.9 mph - N/A   Clear
9:56 PM 28.9 °F 20.4 °F 7.0 °F 40% 30.34 in 10.0 mi ESE 9.2 mph - N/A   Clear
10:56 PM 28.9 °F 19.2 °F 7.0 °F 40% 30.32 in 10.0 mi ESE 11.5 mph - N/A   Clear
11:56 PM 28.0 °F 17.5 °F 7.0 °F 41% 30.31 in 10.0 mi ESE 12.7 mph - N/A   Clear